DECAYED

OBJECT D, 53447 (Decayed)

Orbit data source: Space-Track

You're viewing an Uncataloged Satellite

Recently launched and/or uncataloged satellites may have evolving metadata. Metadata may include but not limited to: Owner, Maufacturer, Bus, Motor, and Mission.

OBJECT D, 53447 was a satellite owned by Changguang WJ (CN) in LEO that was launched on Wed, 10 Aug 2022 UTC via a CHANG ZHENG 6 launch vehicle from the Taiyaun Space Center, China (TSC). Unknown objects in Earth's orbit typically refer to objects detected orbiting the Earth but have not yet been identified or cataloged. These objects could be anything from previously untracked satellites, spent rocket stages, debris from satellite collisions, or even natural meteoroids temporarily captured by Earth's gravity. This object's orbit decayed before it could be identified.

Not visible in the next 10 days
Identifier
53447, 2022-098D
Orbit
Decayed
Country
Flag of CNCN / PRC
Related business
Manufacturer
Changguang WJ
Mission
Decayed Commercial Imaging
Bus & Motor
JL-1, Unknown motor
Mass
42 kg wet, 42 kg dry
Launch date (UTC)
2022-08-10 (4 years ago)
Launch vehicle
CHANG ZHENG 6
Launch site
Taiyaun Space Center, China (TSC)
Object type
Unknown
Shape & HBR
Box + 2 Pan, 0.8 m
Radar Cross Section
2.000 m², Medium (>0.1 m² and < 1m²)

Expand to show TLE details & history
Last TLE update: 2 months ago

TLE from 2 months ago
0 OBJECT D
1 53447U 22098D   26115.59202513  .10541803  26314-5  23260-3 0  9995
2 53447  97.5185 250.4843 0012760 303.8555  56.1532 16.45652356207050
Epoch: 2026-04-25T14:12Z
TLE epoch observation values (Epoch: 2026-04-25T14:12:30.971Z)
Latitude
-0.00002°
Longitude
-176.25293°
Altitude
149.431 km
Speed
7.819 km/s
True Right ascension
16h 41m 56s
True Declination
0° 00' 00"
Sunlit
Object was in full shadow at epoch
Visualization orbit readout
Latitude
Unknown
Longitude
Unknown
Altitude
Unknown
Speed
Unknown
Apparent Right ascension
Unknown
Apparent Declination
Unknown
Sunlit
N/A
Visualization observer readout
Local Sidereal Time
21:36:19
Azimuth
Unknown
Elevation
Unknown
Doppler factor
Unknown
Orbital elements
Apogee altitude
155.942 km
Perigee altitude
139.288 km
Semi-major axis
6,525.752 km
Eccentricity
0.00128
Inclination
97.5185°
RAAN
250.4843°
Arg. of periapsis
303.8555°
True anomaly
56.27475°
Mean anomaly
56.1532°
Eccentric anomaly
56.21396°
Mean motion
4.11716 °/min
Orbital period
87.44 mins
BSTAR
0.0002326
Loading maneuver chart data...
Computing Atmospheric mass density...
Loading historical data...
Loading historical data...
Loading historical data...
Loading historical data...
Loading historical data...
Loading historical data...
Loading historical data...

Documentation

Showing up to 5 results
|